TimeEST,TemperatureF,Dew PointF,Humidity,Sea Level PressureIn,VisibilityMPH,Wind Direction,Wind SpeedMPH,Gust SpeedMPH,PrecipitationIn,Events,Conditions,WindDirDegrees,DateUTC
12:53 AM,51.1,50.0,96,29.95,8.0,Calm,Calm,-,0.10,Rain,Light Rain,0,2013-01-02 05:53:00
1:53 AM,50.0,48.9,96,29.97,10.0,WNW,6.9,-,0.02,,Overcast,300,2013-01-02 06:53:00
2:53 AM,50.0,46.9,89,29.99,10.0,NNW,9.2,-,0.00,,Overcast,330,2013-01-02 07:53:00
3:53 AM,48.9,46.0,90,30.01,10.0,NW,10.4,-,N/A,,Overcast,310,2013-01-02 08:53:00
4:53 AM,48.0,44.1,86,30.00,10.0,NNW,4.6,-,N/A,,Overcast,330,2013-01-02 09:53:00
5:04 AM,48.2,44.6,87,30.01,10.0,NNW,4.6,-,N/A,,Overcast,330,2013-01-02 10:04:00
5:53 AM,46.9,43.0,86,30.01,10.0,NW,3.5,-,N/A,,Overcast,320,2013-01-02 10:53:00
6:53 AM,45.0,41.0,86,30.04,10.0,NW,10.4,-,N/A,,Overcast,310,2013-01-02 11:53:00
7:53 AM,43.0,39.9,89,30.07,10.0,Variable,5.8,-,N/A,,Overcast,0,2013-01-02 12:53:00
8:53 AM,43.0,39.0,86,30.09,10.0,Variable,5.8,-,N/A,,Overcast,0,2013-01-02 13:53:00
9:53 AM,42.1,37.9,85,30.12,10.0,Variable,5.8,-,N/A,,Overcast,0,2013-01-02 14:53:00
10:53 AM,43.0,37.9,82,30.12,10.0,WNW,6.9,-,N/A,,Overcast,300,2013-01-02 15:53:00
11:53 AM,43.0,37.0,80,30.13,10.0,NW,10.4,-,N/A,,Mostly Cloudy,310,2013-01-02 16:53:00
12:06 PM,44.6,37.4,76,30.11,10.0,North,5.8,-,N/A,,Scattered Clouds,350,2013-01-02 17:06:00
12:37 PM,44.6,37.4,76,30.10,10.0,WNW,8.1,-,N/A,,Mostly Cloudy,290,2013-01-02 17:37:00
12:53 PM,45.0,37.9,76,30.09,10.0,NNW,10.4,-,N/A,,Mostly Cloudy,340,2013-01-02 17:53:00
1:10 PM,44.6,37.4,76,30.09,10.0,North,8.1,-,N/A,,Scattered Clouds,350,2013-01-02 18:10:00
1:53 PM,44.1,37.0,76,30.08,10.0,NW,10.4,-,N/A,,Clear,310,2013-01-02 18:53:00
2:53 PM,45.0,37.0,74,30.07,10.0,NNW,5.8,-,N/A,,Clear,340,2013-01-02 19:53:00
3:53 PM,44.1,37.0,76,30.09,10.0,WNW,6.9,-,N/A,,Mostly Cloudy,290,2013-01-02 20:53:00
4:01 PM,44.6,37.4,76,30.09,10.0,NW,4.6,-,N/A,,Scattered Clouds,320,2013-01-02 21:01:00
4:53 PM,43.0,37.0,80,30.10,10.0,WNW,8.1,-,N/A,,Scattered Clouds,290,2013-01-02 21:53:00
5:53 PM,42.8,35.6,76,30.09,10.0,NW,6.9,-,N/A,,Scattered Clouds,310,2013-01-02 22:53:00
6:37 PM,41.0,35.6,81,30.11,10.0,NNW,5.8,-,N/A,,Mostly Cloudy,340,2013-01-02 23:37:00
6:53 PM,41.0,36.0,82,30.13,10.0,NNW,8.1,-,N/A,,Mostly Cloudy,330,2013-01-02 23:53:00
7:30 PM,41.0,35.6,81,30.13,10.0,NNW,8.1,-,N/A,,Mostly Cloudy,330,2013-01-03 00:30:00
7:53 PM,41.0,35.1,79,30.17,10.0,NW,6.9,-,N/A,,Partly Cloudy,310,2013-01-03 00:53:00
8:20 PM,41.0,35.6,81,30.18,10.0,WNW,5.8,-,N/A,,Mostly Cloudy,300,2013-01-03 01:20:00
8:29 PM,41.0,35.6,81,30.16,10.0,NNW,4.6,-,N/A,,Scattered Clouds,340,2013-01-03 01:29:00
8:53 PM,39.9,35.1,83,30.17,10.0,WNW,4.6,-,N/A,,Clear,300,2013-01-03 01:53:00
9:53 PM,39.9,35.1,83,30.17,10.0,Variable,4.6,-,N/A,,Clear,0,2013-01-03 02:53:00
10:53 PM,39.9,35.1,83,30.14,10.0,Calm,Calm,-,0.00,Rain,Light Rain,0,2013-01-03 03:53:00
11:53 PM,39.0,36.0,89,30.15,10.0,NW,3.5,-,0.00,,Overcast,310,2013-01-03 04:53:00